Time,TemperatureF,DewpointF,PressureIn,WindDirection,WindDirectionDegrees,WindSpeedMPH,WindSpeedGustMPH,Humidity,HourlyPrecipIn,Conditions,Clouds,dailyrainin,SoftwareType,DateUTC
2013-01-10 00:03:00,27.0,18.0,-100.00,SSE,150,10.0,14.0,65,0.00,,,0.00,,2013-01-10 00:03:00,
2013-01-10 00:12:00,28.0,18.0,-100.00,SE,135,11.0,15.0,65,0.00,,,0.00,,2013-01-10 00:12:00,
2013-01-10 00:22:00,28.0,18.0,-100.00,SE,135,11.0,17.0,64,0.00,,,0.00,,2013-01-10 00:22:00,
2013-01-10 00:32:00,29.0,18.0,-100.00,SE,145,12.0,17.0,63,0.00,,,0.00,,2013-01-10 00:32:00,
2013-01-10 00:42:00,29.0,18.0,-100.00,SE,140,13.0,17.0,62,0.00,,,0.00,,2013-01-10 00:42:00,
2013-01-10 00:52:00,29.0,18.0,-100.00,SE,145,12.0,16.0,62,0.00,,,0.00,,2013-01-10 00:52:00,
2013-01-10 01:02:00,29.0,18.0,-100.00,SSE,150,14.0,17.0,63,0.00,,,0.00,,2013-01-10 01:02:00,
2013-01-10 01:12:00,29.0,18.0,-100.00,SE,145,15.0,21.0,64,0.00,,,0.00,,2013-01-10 01:12:00,
2013-01-10 01:22:00,28.0,18.0,-100.00,SSE,150,18.0,23.0,65,0.00,,,0.00,,2013-01-10 01:22:00,
2013-01-10 01:32:00,28.0,18.0,-100.00,SE,145,19.0,22.0,66,0.00,,,0.00,,2013-01-10 01:32:00,
2013-01-10 01:42:00,28.0,19.0,-100.00,SSE,150,20.0,24.0,67,0.00,,,0.00,,2013-01-10 01:42:00,
2013-01-10 01:52:00,29.0,19.0,-100.00,SSE,150,21.0,26.0,68,0.00,,,0.00,,2013-01-10 01:52:00,
2013-01-10 02:03:00,28.0,19.0,-100.00,SSE,150,21.0,25.0,70,0.00,,,0.00,,2013-01-10 02:03:00,
2013-01-10 02:12:00,28.0,19.0,-100.00,SSE,150,20.0,26.0,70,0.00,,,0.00,,2013-01-10 02:12:00,
2013-01-10 02:22:00,29.0,19.0,-100.00,SSE,150,20.0,25.0,69,0.00,,,0.00,,2013-01-10 02:22:00,
2013-01-10 02:32:00,28.0,19.0,-100.00,SSE,150,21.0,24.0,70,0.00,,,0.00,,2013-01-10 02:32:00,
2013-01-10 02:42:00,28.0,19.0,-100.00,SSE,150,21.0,24.0,70,0.00,,,0.00,,2013-01-10 02:42:00,
2013-01-10 02:52:00,28.0,19.0,-100.00,SSE,150,21.0,24.0,70,0.00,,,0.00,,2013-01-10 02:52:00,
2013-01-10 03:02:00,29.0,21.0,-100.00,SSE,150,22.0,27.0,71,0.00,,,0.00,,2013-01-10 03:02:00,
2013-01-10 03:12:00,29.0,21.0,-100.00,SSE,150,22.0,27.0,71,0.00,,,0.00,,2013-01-10 03:12:00,
2013-01-10 03:22:00,29.0,21.0,-100.00,SSE,150,20.0,26.0,71,0.00,,,0.00,,2013-01-10 03:22:00,
2013-01-10 03:32:00,29.0,21.0,-100.00,SSE,155,22.0,26.0,72,0.00,,,0.00,,2013-01-10 03:32:00,
2013-01-10 03:42:00,29.0,21.0,-100.00,SSE,150,21.0,25.0,73,0.00,,,0.00,,2013-01-10 03:42:00,
2013-01-10 03:52:00,29.0,21.0,-100.00,SSE,150,22.0,27.0,73,0.00,,,0.00,,2013-01-10 03:52:00,
2013-01-10 04:02:00,29.0,21.0,-100.00,SE,145,20.0,27.0,72,0.00,,,0.00,,2013-01-10 04:02:00,
2013-01-10 04:12:00,29.0,21.0,-100.00,SSE,150,20.0,24.0,73,0.00,,,0.00,,2013-01-10 04:12:00,
2013-01-10 04:22:00,30.0,23.0,-100.00,SE,140,20.0,26.0,73,0.00,,,0.00,,2013-01-10 04:22:00,
2013-01-10 04:32:00,30.0,23.0,-100.00,SSE,150,19.0,26.0,73,0.00,,,0.00,,2013-01-10 04:32:00,
2013-01-10 04:42:00,29.0,23.0,-100.00,SE,145,15.0,24.0,74,0.00,,,0.00,,2013-01-10 04:42:00,
2013-01-10 04:52:00,30.0,23.0,-100.00,SE,145,18.0,23.0,74,0.00,,,0.00,,2013-01-10 04:52:00,
2013-01-10 05:03:00,29.0,23.0,-100.00,SSE,150,20.0,26.0,74,0.00,,,0.00,,2013-01-10 05:03:00,
2013-01-10 05:12:00,29.0,23.0,-100.00,SSE,155,20.0,26.0,74,0.00,,,0.00,,2013-01-10 05:12:00,
2013-01-10 05:22:00,30.0,23.0,-100.00,SSE,150,22.0,27.0,75,0.00,,,0.00,,2013-01-10 05:22:00,
2013-01-10 05:33:00,29.0,23.0,-100.00,SE,145,21.0,27.0,75,0.00,,,0.00,,2013-01-10 05:33:00,
2013-01-10 05:42:00,29.0,23.0,-100.00,SSE,155,22.0,28.0,76,0.00,,,0.00,,2013-01-10 05:42:00,
2013-01-10 05:52:00,29.0,23.0,-100.00,SSE,155,21.0,29.0,77,0.00,,,0.00,,2013-01-10 05:52:00,
2013-01-10 06:02:00,30.0,23.0,-100.00,SSE,150,22.0,31.0,77,0.00,,,0.00,,2013-01-10 06:02:00,
2013-01-10 06:11:00,30.0,23.0,-100.00,SSE,155,20.0,27.0,76,0.00,,,0.00,,2013-01-10 06:11:00,
2013-01-10 06:22:00,30.0,23.0,-100.00,SSE,150,21.0,28.0,75,0.00,,,0.00,,2013-01-10 06:22:00,
2013-01-10 06:32:00,30.0,23.0,-100.00,SE,145,23.0,28.0,77,0.00,,,0.00,,2013-01-10 06:32:00,
2013-01-10 06:42:00,29.0,23.0,-100.00,SSE,150,21.0,29.0,77,0.00,,,0.00,,2013-01-10 06:42:00,
2013-01-10 06:52:00,29.0,23.0,-100.00,SSE,155,18.0,24.0,78,0.00,,,0.00,,2013-01-10 06:52:00,
2013-01-10 07:02:00,30.0,23.0,-100.00,SSE,155,21.0,29.0,78,0.00,,,0.00,,2013-01-10 07:02:00,
2013-01-10 07:12:00,29.0,23.0,-100.00,SSE,150,19.0,29.0,78,0.00,,,0.00,,2013-01-10 07:12:00,
2013-01-10 07:22:00,29.0,23.0,-100.00,SSE,155,19.0,23.0,78,0.00,,,0.00,,2013-01-10 07:22:00,
2013-01-10 07:32:00,29.0,23.0,-100.00,SSE,150,18.0,22.0,79,0.00,,,0.00,,2013-01-10 07:32:00,
2013-01-10 07:42:00,30.0,23.0,-100.00,SSE,150,17.0,23.0,78,0.00,,,0.00,,2013-01-10 07:42:00,
2013-01-10 07:52:00,30.0,25.0,-100.00,SSE,155,19.0,26.0,77,0.00,,,0.00,,2013-01-10 07:52:00,
2013-01-10 08:02:00,31.0,25.0,-100.00,SSE,155,21.0,26.0,76,0.00,,,0.00,,2013-01-10 08:02:00,
2013-01-10 08:11:00,30.0,23.0,-100.00,SSE,155,18.0,25.0,77,0.00,,,0.00,,2013-01-10 08:11:00,
2013-01-10 08:22:00,30.0,23.0,-100.00,SSE,155,19.0,24.0,78,0.00,,,0.00,,2013-01-10 08:22:00,
2013-01-10 08:32:00,30.0,25.0,-100.00,SSE,155,20.0,25.0,78,0.00,,,0.00,,2013-01-10 08:32:00,
2013-01-10 08:42:00,31.0,25.0,-100.00,SSE,160,19.0,26.0,78,0.00,,,0.00,,2013-01-10 08:42:00,
2013-01-10 08:52:00,31.0,25.0,-100.00,SSE,150,19.0,24.0,78,0.00,,,0.00,,2013-01-10 08:52:00,
2013-01-10 09:02:00,31.0,25.0,-100.00,SSE,150,19.0,23.0,78,0.00,,,0.00,,2013-01-10 09:02:00,
2013-01-10 09:12:00,31.0,25.0,-100.00,SSE,150,19.0,23.0,77,0.00,,,0.00,,2013-01-10 09:12:00,
2013-01-10 09:22:00,32.0,25.0,-100.00,SSE,155,19.0,24.0,77,0.00,,,0.00,,2013-01-10 09:22:00,
2013-01-10 09:32:00,32.0,25.0,-100.00,SSE,150,19.0,23.0,77,0.00,,,0.00,,2013-01-10 09:32:00,
2013-01-10 09:42:00,32.0,27.0,-100.00,SSE,150,19.0,25.0,76,0.00,,,0.00,,2013-01-10 09:42:00,
2013-01-10 09:52:00,32.0,25.0,-100.00,SE,145,20.0,24.0,76,0.00,,,0.00,,2013-01-10 09:52:00,
2013-01-10 10:02:00,32.0,25.0,-100.00,SSE,150,19.0,24.0,77,0.00,,,0.00,,2013-01-10 10:02:00,
2013-01-10 10:12:00,32.0,25.0,-100.00,SSE,150,19.0,22.0,77,0.00,,,0.00,,2013-01-10 10:12:00,
2013-01-10 10:22:00,32.0,25.0,-100.00,SSE,155,18.0,22.0,77,0.00,,,0.00,,2013-01-10 10:22:00,
2013-01-10 10:32:00,32.0,27.0,-100.00,SSE,150,18.0,24.0,77,0.00,,,0.00,,2013-01-10 10:32:00,
2013-01-10 10:42:00,33.0,27.0,-100.00,SSE,150,19.0,23.0,77,0.00,,,0.00,,2013-01-10 10:42:00,
2013-01-10 10:52:00,33.0,27.0,-100.00,SSE,150,20.0,24.0,75,0.00,,,0.00,,2013-01-10 10:52:00,
2013-01-10 11:02:00,33.0,27.0,-100.00,SE,145,20.0,24.0,75,0.00,,,0.00,,2013-01-10 11:02:00,
2013-01-10 11:12:00,33.0,27.0,-100.00,SSE,150,21.0,26.0,75,0.00,,,0.00,,2013-01-10 11:12:00,
2013-01-10 11:22:00,33.0,27.0,-100.00,SSE,150,21.0,24.0,76,0.00,,,0.00,,2013-01-10 11:22:00,
2013-01-10 11:32:00,32.0,25.0,-100.00,SSE,150,18.0,23.0,77,0.00,,,0.00,,2013-01-10 11:32:00,
2013-01-10 11:42:00,32.0,27.0,-100.00,SSE,160,18.0,26.0,77,0.00,,,0.00,,2013-01-10 11:42:00,
2013-01-10 11:52:00,33.0,27.0,-100.00,SSE,165,21.0,26.0,76,0.00,,,0.00,,2013-01-10 11:52:00,
2013-01-10 12:02:00,34.0,27.0,-100.00,SSE,160,24.0,28.0,75,0.00,,,0.00,,2013-01-10 12:02:00,
2013-01-10 12:12:00,34.0,27.0,-100.00,SSE,160,19.0,26.0,75,0.00,,,0.00,,2013-01-10 12:12:00,
2013-01-10 12:22:00,33.0,27.0,-100.00,SSE,155,21.0,24.0,75,0.00,,,0.00,,2013-01-10 12:22:00,
2013-01-10 12:32:00,33.0,27.0,-100.00,SSE,155,20.0,25.0,76,0.00,,,0.00,,2013-01-10 12:32:00,
2013-01-10 12:42:00,33.0,27.0,-100.00,SSE,160,21.0,24.0,77,0.00,,,0.00,,2013-01-10 12:42:00,
2013-01-10 12:52:00,34.0,27.0,-100.00,SSE,160,23.0,27.0,77,0.00,,,0.00,,2013-01-10 12:52:00,
2013-01-10 13:02:00,34.0,27.0,-100.00,SSE,155,23.0,28.0,75,0.00,,,0.00,,2013-01-10 13:02:00,
2013-01-10 13:12:00,33.0,27.0,-100.00,SSE,155,20.0,28.0,76,0.00,,,0.00,,2013-01-10 13:12:00,
2013-01-10 13:22:00,33.0,27.0,-100.00,SSE,155,20.0,24.0,77,0.00,,,0.00,,2013-01-10 13:22:00,
2013-01-10 13:32:00,33.0,27.0,-100.00,SSE,155,19.0,27.0,77,0.00,,,0.00,,2013-01-10 13:32:00,
2013-01-10 13:42:00,32.0,27.0,-100.00,SSE,165,20.0,24.0,78,0.00,,,0.00,,2013-01-10 13:42:00,
2013-01-10 13:52:00,32.0,27.0,-100.00,SSE,160,21.0,24.0,78,0.00,,,0.00,,2013-01-10 13:52:00,
2013-01-10 14:02:00,33.0,27.0,-100.00,SSE,165,21.0,26.0,78,0.00,,,0.00,,2013-01-10 14:02:00,
2013-01-10 14:12:00,33.0,27.0,-100.00,SSE,160,19.0,24.0,77,0.00,,,0.00,,2013-01-10 14:12:00,
2013-01-10 14:22:00,33.0,27.0,-100.00,SSE,155,20.0,24.0,77,0.00,,,0.00,,2013-01-10 14:22:00,
2013-01-10 14:32:00,33.0,27.0,-100.00,SSE,155,17.0,24.0,77,0.00,,,0.00,,2013-01-10 14:32:00,
2013-01-10 14:43:00,32.0,27.0,-100.00,SSE,155,19.0,24.0,77,0.00,,,0.00,,2013-01-10 14:43:00,
2013-01-10 14:53:00,32.0,27.0,-100.00,SSE,155,19.0,26.0,78,0.00,,,0.00,,2013-01-10 14:53:00,
2013-01-10 15:03:00,32.0,25.0,-100.00,SSE,160,19.0,24.0,78,0.00,,,0.00,,2013-01-10 15:03:00,
2013-01-10 15:12:00,32.0,25.0,-100.00,SSE,160,21.0,24.0,78,0.00,,,0.00,,2013-01-10 15:12:00,
2013-01-10 15:22:00,32.0,25.0,-100.00,SSE,165,21.0,31.0,75,0.00,,,0.00,,2013-01-10 15:22:00,
2013-01-10 15:32:00,32.0,25.0,-100.00,SSE,165,22.0,26.0,76,0.00,,,0.00,,2013-01-10 15:32:00,
2013-01-10 15:43:00,32.0,25.0,-100.00,SSE,165,21.0,26.0,76,0.00,,,0.00,,2013-01-10 15:43:00,
2013-01-10 15:53:00,33.0,27.0,-100.00,SSE,165,22.0,26.0,75,0.00,,,0.00,,2013-01-10 15:53:00,
2013-01-10 16:02:00,33.0,27.0,-100.00,SSE,165,20.0,24.0,74,0.00,,,0.00,,2013-01-10 16:02:00,
2013-01-10 16:12:00,34.0,27.0,-100.00,SSE,165,23.0,29.0,73,0.00,,,0.00,,2013-01-10 16:12:00,
2013-01-10 16:22:00,34.0,27.0,-100.00,SSE,165,22.0,26.0,72,0.00,,,0.00,,2013-01-10 16:22:00,
2013-01-10 16:33:00,34.0,27.0,-100.00,SSE,160,21.0,26.0,72,0.00,,,0.00,,2013-01-10 16:33:00,
2013-01-10 16:42:00,35.0,27.0,-100.00,SSE,150,20.0,26.0,70,0.00,,,0.00,,2013-01-10 16:42:00,
2013-01-10 16:52:00,35.0,27.0,-100.00,SE,145,21.0,27.0,68,0.00,,,0.00,,2013-01-10 16:52:00,
2013-01-10 17:03:00,36.0,25.0,-100.00,SSE,150,21.0,27.0,66,0.00,,,0.00,,2013-01-10 17:03:00,
2013-01-10 17:12:00,35.0,25.0,-100.00,SSE,165,21.0,29.0,65,0.00,,,0.00,,2013-01-10 17:12:00,
2013-01-10 17:22:00,36.0,25.0,-100.00,SSE,165,21.0,27.0,62,0.00,,,0.00,,2013-01-10 17:22:00,
2013-01-10 17:33:00,35.0,23.0,-100.00,SSE,155,20.0,27.0,62,0.00,,,0.00,,2013-01-10 17:33:00,
2013-01-10 17:42:00,35.0,23.0,-100.00,SSE,155,21.0,26.0,61,0.00,,,0.00,,2013-01-10 17:42:00,
2013-01-10 17:53:00,35.0,23.0,-100.00,SSE,160,24.0,28.0,60,0.00,,,0.00,,2013-01-10 17:53:00,
2013-01-10 18:03:00,35.0,23.0,-100.00,SSE,165,22.0,29.0,60,0.00,,,0.00,,2013-01-10 18:03:00,
2013-01-10 18:12:00,36.0,23.0,-100.00,SSE,160,21.0,28.0,59,0.00,,,0.00,,2013-01-10 18:12:00,
2013-01-10 18:23:00,36.0,23.0,-100.00,SSE,165,21.0,26.0,58,0.00,,,0.00,,2013-01-10 18:23:00,
2013-01-10 18:33:00,36.0,23.0,-100.00,SSE,160,21.0,27.0,58,0.00,,,0.00,,2013-01-10 18:33:00,
2013-01-10 18:43:00,36.0,23.0,-100.00,SSE,155,22.0,27.0,57,0.00,,,0.00,,2013-01-10 18:43:00,
2013-01-10 18:52:00,36.0,21.0,-100.00,SSE,150,22.0,27.0,56,0.00,,,0.00,,2013-01-10 18:52:00,
2013-01-10 19:03:00,36.0,21.0,-100.00,SSE,150,20.0,34.0,54,0.00,,,0.00,,2013-01-10 19:03:00,
2013-01-10 19:12:00,36.0,21.0,-100.00,SE,145,22.0,27.0,55,0.00,,,0.00,,2013-01-10 19:12:00,
2013-01-10 19:23:00,35.0,21.0,-100.00,SE,145,21.0,27.0,55,0.00,,,0.00,,2013-01-10 19:23:00,
2013-01-10 19:33:00,36.0,21.0,-100.00,SE,145,21.0,26.0,53,0.00,,,0.00,,2013-01-10 19:33:00,
2013-01-10 19:43:00,35.0,21.0,-100.00,SSE,150,19.0,26.0,54,0.00,,,0.00,,2013-01-10 19:43:00,
2013-01-10 19:52:00,35.0,21.0,-100.00,SE,145,16.0,23.0,55,0.00,,,0.00,,2013-01-10 19:52:00,
2013-01-10 20:03:00,35.0,19.0,-100.00,SE,145,17.0,24.0,53,0.00,,,0.00,,2013-01-10 20:03:00,
2013-01-10 20:12:00,36.0,21.0,-100.00,SSE,150,21.0,26.0,52,0.00,,,0.00,,2013-01-10 20:12:00,
2013-01-10 20:23:00,35.0,19.0,-100.00,SE,145,21.0,25.0,52,0.00,,,0.00,,2013-01-10 20:23:00,
2013-01-10 20:33:00,35.0,19.0,-100.00,SSE,150,20.0,26.0,52,0.00,,,0.00,,2013-01-10 20:33:00,
2013-01-10 20:42:00,35.0,21.0,-100.00,SE,140,20.0,26.0,54,0.00,,,0.00,,2013-01-10 20:42:00,
2013-01-10 20:53:00,35.0,21.0,-100.00,SE,145,20.0,29.0,55,0.00,,,0.00,,2013-01-10 20:53:00,
2013-01-10 21:03:00,35.0,21.0,-100.00,SE,145,20.0,27.0,56,0.00,,,0.00,,2013-01-10 21:03:00,
2013-01-10 21:12:00,35.0,21.0,-100.00,SE,140,21.0,27.0,56,0.00,,,0.00,,2013-01-10 21:12:00,
2013-01-10 21:23:00,36.0,21.0,-100.00,SE,145,21.0,29.0,57,0.00,,,0.00,,2013-01-10 21:23:00,
2013-01-10 21:33:00,36.0,23.0,-100.00,SE,145,21.0,29.0,58,0.00,,,0.00,,2013-01-10 21:33:00,
2013-01-10 21:42:00,36.0,23.0,-100.00,SE,145,23.0,31.0,58,0.00,,,0.00,,2013-01-10 21:42:00,
2013-01-10 21:52:00,35.0,23.0,-100.00,SE,145,22.0,30.0,61,0.00,,,0.00,,2013-01-10 21:52:00,
2013-01-10 22:03:00,35.0,25.0,-100.00,SSE,150,21.0,32.0,67,0.00,,,0.00,,2013-01-10 22:03:00,
2013-01-10 22:12:00,34.0,27.0,-100.00,SSE,150,21.0,29.0,74,0.00,,,0.00,,2013-01-10 22:12:00,
2013-01-10 22:25:00,34.0,28.0,-100.00,SE,145,19.0,27.0,78,0.00,,,0.00,,2013-01-10 22:25:00,
2013-01-10 22:33:00,34.0,28.0,-100.00,SE,135,19.0,27.0,81,0.00,,,0.00,,2013-01-10 22:33:00,
2013-01-10 22:43:00,34.0,28.0,-100.00,SE,135,18.0,25.0,83,0.00,,,0.00,,2013-01-10 22:43:00,
2013-01-10 23:02:00,33.0,28.0,-100.00,SE,135,16.0,24.0,83,0.00,,,0.00,,2013-01-10 23:02:00,
2013-01-10 23:12:00,34.0,28.0,-100.00,SE,135,18.0,24.0,82,0.00,,,0.00,,2013-01-10 23:12:00,
2013-01-10 23:22:00,34.0,28.0,-100.00,SE,135,17.0,24.0,82,0.00,,,0.00,,2013-01-10 23:22:00,
2013-01-10 23:33:00,34.0,28.0,-100.00,SE,125,20.0,27.0,80,0.00,,,0.00,,2013-01-10 23:33:00,
2013-01-10 23:43:00,34.0,28.0,-100.00,SE,130,18.0,30.0,79,0.00,,,0.00,,2013-01-10 23:43:00,
2013-01-10 23:53:00,34.0,28.0,-100.00,SE,130,20.0,29.0,77,0.00,,,0.00,,2013-01-10 23:53:00,